Flag for United Kingdom Weather past 2 weeks in Wakefield, England, United Kingdom

Now
46 °F

Sprinkles. Passing clouds.


Feels Like: 38 °F
Forecast: N/A
Wind: 24 mph from West

Location: Leeds And Bradford

Current Time: Feb 28, 2015 at 11:43:57 PM

Latest Report: Feb 28, 2015 at 11:20 PM


Visibility: N/A

Pressure: 29.15 "Hg

Humidity: 82%

Dew point: 41 °F

Location of WakefieldLocation

Historic Weather in Wakefield — Graph

°F

Wakefield temperature yesterday

Maximum temperature yesterday: 43 °F (at 11:50 AM)
Minimum temperature yesterday: 34 °F (at 12:20 AM)
Average temperature yesterday: 38 °F

Past Weeks' High & Low Weather Summary

 TemperatureHumidityPressure
High50 °F (Feb 18, 1:50 PM)100% (Feb 13, 10:20 PM)30.60 "Hg (Feb 13, 10:20 PM)
Low30 °F (Feb 17, 1:50 AM)57% (Feb 23, 2:20 PM)28.91 "Hg (Feb 23, 6:20 PM)
Average40 °F89%29.76 "Hg
* Reported Feb 13 10:20 PM — Feb 28 10:20 PM, Wakefield, Weather by CustomWeather, © 2015

Note: Actual official high and low records may vary slightly from our data, if they occured in-between our weather recording intervals... More about our weather records

Advertising

Wakefield weather history for previous 24 hours

 ConditionsComfort  
Time TempWeatherWind HumidityBarometerVisibility
10:20 PM
Sat, Feb 28
48 °FSprinkles. Passing clouds.26 mph87%29.12 "HgN/A
9:50 PM46 °FPassing clouds.17 mph93%29.12 "HgN/A
9:20 PM46 °FLight rain. Partly cloudy.16 mph93%29.15 "HgN/A
8:50 PM46 °FLight rain. Partly cloudy.15 mph93%29.18 "HgN/A
8:20 PM46 °FLight rain. Partly cloudy.17 mph87%29.18 "HgN/A
7:50 PM45 °FLight rain. Partly cloudy.15 mph93%29.21 "HgN/A
7:20 PM45 °FPartly cloudy.15 mph87%29.24 "HgN/A
6:50 PM45 °FLight rain. Partly cloudy.16 mph87%29.27 "HgN/A
6:20 PM45 °FLight rain. Partly cloudy.15 mph87%29.27 "HgN/A
5:50 PM45 °FLight rain. Partly cloudy.17 mph87%29.30 "HgN/A
5:20 PM46 °FSprinkles. Scattered clouds.16 mph82%29.33 "HgN/A
4:50 PM46 °FScattered clouds.15 mph82%29.36 "HgN/A
4:20 PM46 °FScattered clouds.16 mph82%29.39 "HgN/A
3:50 PM46 °FScattered clouds.13 mph87%29.42 "HgN/A
3:20 PM46 °FLight rain. Scattered clouds.10 mph87%29.45 "HgN/A
2:50 PM46 °FLight rain. Scattered clouds.6 mph93%29.47 "HgN/A
2:20 PM48 °FScattered clouds.8 mph82%29.50 "HgN/A
1:50 PM46 °FLight rain. Scattered clouds.6 mph87%29.50 "HgN/A
1:20 PM48 °FScattered clouds.10 mph82%29.53 "HgN/A
12:50 PM48 °FScattered clouds.10 mph76%29.53 "HgN/A
12:20 PM48 °FScattered clouds.14 mph76%29.56 "HgN/A
11:50 AM48 °FScattered clouds.14 mph82%29.56 "HgN/A
11:20 AM46 °FScattered clouds.10 mph87%29.59 "HgN/A
10:50 AM46 °FScattered clouds.13 mph87%29.59 "HgN/A
10:20 AM46 °FScattered clouds.13 mph87%29.59 "HgN/A
9:50 AM45 °FScattered clouds.10 mph93%29.62 "HgN/A
9:20 AM45 °FScattered clouds.10 mph93%29.62 "HgN/A
8:50 AM45 °FScattered clouds.10 mph93%29.65 "HgN/A
8:20 AM45 °FScattered clouds.8 mph93%29.65 "HgN/A
7:50 AM43 °FScattered clouds.6 mph93%29.65 "HgN/A
7:20 AM41 °FPartly sunny.5 mph93%29.68 "HgN/A
6:50 AM43 °FPassing clouds.9 mph93%29.68 "HgN/A
6:20 AM43 °FPassing clouds.9 mph93%29.68 "HgN/A
5:50 AM43 °FPassing clouds.10 mph93%29.68 "HgN/A
5:20 AM41 °FPassing clouds.8 mph93%29.68 "HgN/A
4:50 AM41 °FPassing clouds.8 mph93%29.68 "HgN/A
4:20 AM41 °FPassing clouds.8 mph93%29.71 "HgN/A
3:20 AM41 °FPassing clouds.10 mph87%29.74 "HgN/A
2:50 AM41 °FPassing clouds.8 mph87%29.74 "HgN/A
2:20 AM41 °FPassing clouds.8 mph87%29.77 "HgN/A
1:50 AM41 °FClear.13 mph87%29.77 "HgN/A
1:20 AM41 °FClear.10 mph81%29.80 "HgN/A
12:50 AM41 °FPassing clouds.13 mph81%29.80 "HgN/A
12:20 AM41 °FPassing clouds.13 mph81%29.83 "HgN/A
11:50 PM
Fri, Feb 27
41 °FPassing clouds.15 mph81%29.83 "HgN/A
11:20 PM39 °FPassing clouds.14 mph87%29.86 "HgN/A
Weather by CustomWeather, © 2015

See weather overviewHow to use our weather pages